Time,TemperatureF,DewpointF,PressureIn,WindDirection,WindDirectionDegrees,WindSpeedMPH,WindSpeedGustMPH,Humidity,HourlyPrecipIn,Conditions,Clouds,dailyrainin,SolarRadiationWatts/m^2,SoftwareType,DateUTC
2013-07-20 00:00:00,77.9,74.1,29.90,ESE,105,0.0,0.0,88,0.00,,FEW032,0.00,0.00,VWS V14.01,2013-07-20 04:00:00,
2013-07-20 00:01:00,77.9,74.1,29.90,ESE,105,0.0,0.0,88,0.00,,BKN037,0.00,0.00,VWS V14.01,2013-07-20 04:01:00,
2013-07-20 00:06:00,78.1,74.6,29.90,ESE,105,0.0,1.0,89,0.00,,BKN037,0.00,0.00,VWS V14.01,2013-07-20 04:06:00,
2013-07-20 00:11:00,77.9,74.7,29.90,ESE,105,0.0,1.0,90,0.00,,BKN037,0.00,0.00,VWS V14.01,2013-07-20 04:11:00,
2013-07-20 00:16:00,77.7,74.5,29.91,ESE,105,0.0,1.0,90,0.00,,BKN037,0.00,0.00,VWS V14.01,2013-07-20 04:16:00,
2013-07-20 00:21:00,77.7,74.5,29.91,ESE,105,0.0,1.0,90,0.00,,BKN037,0.00,0.00,VWS V14.01,2013-07-20 04:21:00,
2013-07-20 00:26:00,77.6,74.4,29.91,ESE,105,0.0,1.0,90,0.00,,BKN037,0.00,0.00,VWS V14.01,2013-07-20 04:26:00,
2013-07-20 00:30:00,78.1,72.5,29.90,East,98,0.0,3.0,83,0.00,,OVC065,0.00,0.00,VWS V14.01,2013-07-20 04:30:00,
2013-07-20 00:31:00,77.6,74.4,29.91,ESE,105,3.0,3.0,90,0.00,,BKN037,0.00,0.00,VWS V14.01,2013-07-20 04:31:00,
2013-07-20 00:36:00,77.6,74.4,29.91,ESE,105,0.0,3.0,90,0.00,,BKN037,0.00,0.00,VWS V14.01,2013-07-20 04:36:00,
2013-07-20 00:41:00,77.4,74.2,29.91,ESE,105,0.0,3.0,90,0.00,,BKN037,0.00,0.00,VWS V14.01,2013-07-20 04:41:00,
2013-07-20 00:46:00,77.4,74.2,29.90,ESE,105,2.0,3.0,90,0.00,,BKN037,0.00,0.00,VWS V14.01,2013-07-20 04:46:00,
2013-07-20 00:51:00,77.2,73.7,29.90,ESE,105,0.0,3.0,89,0.00,,BKN037,0.00,0.00,VWS V14.01,2013-07-20 04:51:00,
2013-07-20 00:56:00,77.0,73.2,29.90,ESE,105,0.0,3.0,88,0.00,,BKN037,0.00,0.00,VWS V14.01,2013-07-20 04:56:00,
2013-07-20 01:00:00,77.9,74.1,29.90,ESE,105,0.0,0.0,88,0.00,,OVC065,0.00,0.00,VWS V14.01,2013-07-20 05:00:00,
2013-07-20 01:01:00,76.8,73.0,29.89,ESE,105,0.0,0.0,88,0.00,,BKN060,0.00,0.00,VWS V14.01,2013-07-20 05:01:00,
2013-07-20 01:06:00,76.8,73.3,29.89,ESE,105,0.0,0.0,89,0.00,,BKN060,0.00,0.00,VWS V14.01,2013-07-20 05:06:00,
2013-07-20 01:11:00,76.8,73.0,29.89,ESE,105,0.0,0.0,88,0.00,,BKN060,0.00,0.00,VWS V14.01,2013-07-20 05:11:00,
2013-07-20 01:16:00,76.8,73.3,29.89,ESE,105,0.0,0.0,89,0.00,,BKN060,0.00,0.00,VWS V14.01,2013-07-20 05:16:00,
2013-07-20 01:21:00,76.8,73.3,29.89,ESE,105,0.0,0.0,89,0.00,,BKN060,0.00,0.00,VWS V14.01,2013-07-20 05:21:00,
2013-07-20 01:26:00,76.8,73.7,29.89,ESE,105,0.0,0.0,90,0.00,,BKN060,0.00,0.00,VWS V14.01,2013-07-20 05:26:00,
2013-07-20 01:30:00,77.6,74.1,29.91,ESE,105,1.0,1.0,89,0.00,,OVC065,0.00,0.00,VWS V14.01,2013-07-20 05:30:00,
2013-07-20 01:31:00,76.8,73.3,29.89,ESE,105,0.0,0.0,89,0.00,,BKN060,0.00,0.00,VWS V14.01,2013-07-20 05:31:00,
2013-07-20 01:36:00,76.8,73.3,29.89,ESE,105,0.0,0.0,89,0.00,,BKN060,0.00,0.00,VWS V14.01,2013-07-20 05:36:00,
2013-07-20 01:41:00,76.8,73.3,29.89,ESE,105,0.0,0.0,89,0.00,,BKN060,0.00,0.00,VWS V14.01,2013-07-20 05:41:00,
2013-07-20 01:46:00,77.2,74.0,29.89,ESE,105,0.0,0.0,90,0.00,,BKN060,0.00,0.00,VWS V14.01,2013-07-20 05:46:00,
2013-07-20 01:51:00,77.4,74.2,29.89,ESE,105,0.0,1.0,90,0.00,,BKN060,0.00,0.00,VWS V14.01,2013-07-20 05:51:00,
2013-07-20 01:56:00,77.4,74.6,29.89,ESE,105,0.0,1.0,91,0.00,,BKN060,0.00,0.00,VWS V14.01,2013-07-20 05:56:00,
2013-07-20 02:00:00,76.8,73.0,29.89,ESE,105,0.0,3.0,88,0.00,,OVC065,0.00,0.00,VWS V14.01,2013-07-20 06:00:00,
2013-07-20 02:01:00,77.4,74.2,29.88,ESE,105,0.0,0.0,90,0.00,,BKN050,0.00,0.00,VWS V14.01,2013-07-20 06:01:00,
2013-07-20 02:06:00,77.4,74.6,29.88,ESE,105,0.0,0.0,91,0.00,,BKN050,0.00,0.00,VWS V14.01,2013-07-20 06:06:00,
2013-07-20 02:11:00,77.4,74.6,29.88,ESE,105,0.0,0.0,91,0.00,,BKN050,0.00,0.00,VWS V14.01,2013-07-20 06:11:00,
2013-07-20 02:16:00,77.4,74.2,29.87,ESE,105,0.0,0.0,90,0.00,,BKN050,0.00,0.00,VWS V14.01,2013-07-20 06:16:00,
2013-07-20 02:21:00,77.4,74.2,29.87,ESE,105,0.0,0.0,90,0.00,,BKN050,0.00,0.00,VWS V14.01,2013-07-20 06:21:00,
2013-07-20 02:26:00,77.4,74.2,29.87,ESE,105,0.0,0.0,90,0.00,,BKN050,0.00,0.00,VWS V14.01,2013-07-20 06:26:00,
2013-07-20 02:30:00,76.8,73.3,29.89,ESE,105,0.0,0.0,89,0.00,,OVC065,0.00,0.00,VWS V14.01,2013-07-20 06:30:00,
2013-07-20 02:31:00,77.4,74.6,29.87,ESE,105,0.0,0.0,91,0.00,,BKN050,0.00,0.00,VWS V14.01,2013-07-20 06:31:00,
2013-07-20 02:36:00,77.4,74.6,29.87,ESE,105,0.0,0.0,91,0.00,,BKN050,0.00,0.00,VWS V14.01,2013-07-20 06:36:00,
2013-07-20 02:41:00,77.4,74.2,29.87,ESE,105,0.0,0.0,90,0.00,,BKN050,0.00,0.00,VWS V14.01,2013-07-20 06:41:00,
2013-07-20 02:46:00,77.4,74.6,29.87,ESE,105,0.0,0.0,91,0.00,,BKN050,0.00,0.00,VWS V14.01,2013-07-20 06:46:00,
2013-07-20 02:51:00,77.4,74.2,29.87,ESE,105,0.0,0.0,90,0.00,,BKN050,0.00,0.00,VWS V14.01,2013-07-20 06:51:00,
2013-07-20 02:56:00,77.4,73.9,29.87,ESE,105,0.0,0.0,89,0.00,,BKN050,0.00,0.00,VWS V14.01,2013-07-20 06:56:00,
2013-07-20 03:00:00,77.4,74.2,29.88,ESE,105,0.0,1.0,90,0.00,,OVC065,0.00,0.00,VWS V14.01,2013-07-20 07:00:00,
2013-07-20 03:01:00,77.6,74.8,29.87,ESE,105,0.0,0.0,91,0.00,,SCT047,0.00,0.00,VWS V14.01,2013-07-20 07:01:00,
2013-07-20 03:06:00,77.6,75.1,29.87,ESE,105,0.0,0.0,92,0.00,,SCT047,0.00,0.00,VWS V14.01,2013-07-20 07:06:00,
2013-07-20 03:11:00,77.4,74.6,29.87,ESE,105,0.0,0.0,91,0.00,,SCT047,0.00,0.00,VWS V14.01,2013-07-20 07:11:00,
2013-07-20 03:16:00,77.2,74.0,29.87,ESE,105,0.0,0.0,90,0.00,,SCT047,0.00,0.00,VWS V14.01,2013-07-20 07:16:00,
2013-07-20 03:21:00,77.2,74.4,29.87,ESE,105,0.0,0.0,91,0.00,,SCT047,0.00,0.00,VWS V14.01,2013-07-20 07:21:00,
2013-07-20 03:26:00,77.0,74.2,29.87,ESE,105,0.0,0.0,91,0.00,,SCT047,0.00,0.00,VWS V14.01,2013-07-20 07:26:00,
2013-07-20 03:30:00,77.4,74.6,29.87,ESE,105,0.0,0.0,91,0.00,,OVC065,0.00,0.00,VWS V14.01,2013-07-20 07:30:00,
2013-07-20 03:31:00,77.0,73.8,29.86,ESE,105,0.0,0.0,90,0.00,,SCT047,0.00,0.00,VWS V14.01,2013-07-20 07:31:00,
2013-07-20 03:36:00,76.8,73.7,29.86,ESE,105,0.0,0.0,90,0.00,,SCT047,0.00,0.00,VWS V14.01,2013-07-20 07:36:00,
2013-07-20 03:41:00,76.8,74.0,29.86,ESE,105,0.0,0.0,91,0.00,,SCT047,0.00,0.00,VWS V14.01,2013-07-20 07:41:00,
2013-07-20 03:46:00,76.7,73.6,29.86,ESE,105,0.0,0.0,90,0.00,,SCT047,0.00,0.00,VWS V14.01,2013-07-20 07:46:00,
2013-07-20 03:51:00,76.7,73.2,29.86,ESE,105,0.0,0.0,89,0.00,,SCT047,0.00,0.00,VWS V14.01,2013-07-20 07:51:00,
2013-07-20 03:56:00,76.5,73.0,29.86,ESE,105,0.0,0.0,89,0.00,,SCT047,0.00,0.00,VWS V14.01,2013-07-20 07:56:00,
2013-07-20 04:00:00,77.6,74.4,29.87,ESE,105,0.0,1.0,90,0.00,,OVC065,0.00,0.00,VWS V14.01,2013-07-20 08:00:00,
2013-07-20 04:01:00,76.5,73.0,29.86,ESE,105,0.0,0.0,89,0.00,,BKN085,0.00,0.00,VWS V14.01,2013-07-20 08:01:00,
2013-07-20 04:06:00,76.5,73.0,29.86,ESE,105,0.0,0.0,89,0.00,,BKN085,0.00,0.00,VWS V14.01,2013-07-20 08:06:00,
2013-07-20 04:11:00,76.5,73.3,29.86,ESE,105,0.0,0.0,90,0.00,,BKN085,0.00,0.00,VWS V14.01,2013-07-20 08:11:00,
2013-07-20 04:16:00,76.5,73.3,29.86,ESE,105,0.0,0.0,90,0.00,,BKN085,0.00,0.00,VWS V14.01,2013-07-20 08:16:00,
2013-07-20 04:21:00,76.5,73.0,29.86,ESE,105,0.0,0.0,89,0.00,,BKN085,0.00,0.00,VWS V14.01,2013-07-20 08:21:00,
2013-07-20 04:26:00,76.3,72.8,29.86,ESE,105,0.0,0.0,89,0.00,,BKN085,0.00,0.00,VWS V14.01,2013-07-20 08:26:00,
2013-07-20 04:30:00,77.0,73.8,29.86,ESE,105,0.0,0.0,90,0.00,,OVC065,0.00,0.00,VWS V14.01,2013-07-20 08:30:00,
2013-07-20 04:31:00,76.3,72.5,29.86,ESE,105,0.0,0.0,88,0.00,,BKN085,0.00,0.00,VWS V14.01,2013-07-20 08:31:00,
2013-07-20 04:36:00,76.3,72.5,29.86,ESE,105,0.0,0.0,88,0.00,,BKN085,0.00,0.00,VWS V14.01,2013-07-20 08:36:00,
2013-07-20 04:41:00,76.3,72.8,29.86,ESE,105,0.0,0.0,89,0.00,,BKN085,0.00,0.00,VWS V14.01,2013-07-20 08:41:00,
2013-07-20 04:46:00,76.3,73.2,29.86,ESE,105,0.0,0.0,90,0.00,,BKN085,0.00,0.00,VWS V14.01,2013-07-20 08:46:00,
2013-07-20 04:51:00,76.3,72.8,29.86,ESE,105,0.0,0.0,89,0.00,,BKN085,0.00,0.00,VWS V14.01,2013-07-20 08:51:00,
2013-07-20 04:56:00,76.3,73.2,29.86,ESE,105,0.0,0.0,90,0.00,,BKN085,0.00,0.00,VWS V14.01,2013-07-20 08:56:00,
2013-07-20 05:00:00,76.5,73.0,29.86,ESE,105,0.0,0.0,89,0.00,,OVC065,0.00,0.00,VWS V14.01,2013-07-20 09:00:00,
2013-07-20 05:01:00,76.1,73.0,29.86,ESE,105,0.0,0.0,90,0.00,,SCT090,0.00,0.00,VWS V14.01,2013-07-20 09:01:00,
2013-07-20 05:06:00,76.1,72.6,29.86,ESE,105,0.0,0.0,89,0.00,,SCT090,0.00,0.00,VWS V14.01,2013-07-20 09:06:00,
2013-07-20 05:11:00,76.1,73.0,29.86,ESE,105,0.0,0.0,90,0.00,,SCT090,0.00,0.00,VWS V14.01,2013-07-20 09:11:00,
2013-07-20 05:16:00,76.0,72.5,29.86,ESE,105,0.0,0.0,89,0.00,,SCT090,0.00,0.00,VWS V14.01,2013-07-20 09:16:00,
2013-07-20 05:21:00,76.0,72.9,29.86,ESE,105,0.0,0.0,90,0.00,,SCT090,0.00,0.00,VWS V14.01,2013-07-20 09:21:00,
2013-07-20 05:26:00,76.0,72.9,29.86,ESE,105,0.0,0.0,90,0.00,,SCT090,0.00,0.00,VWS V14.01,2013-07-20 09:26:00,
2013-07-20 05:30:00,76.3,72.5,29.86,ESE,105,0.0,0.0,88,0.00,,OVC065,0.00,0.00,VWS V14.01,2013-07-20 09:30:00,
2013-07-20 05:31:00,76.0,72.9,29.87,ESE,105,0.0,0.0,90,0.00,,SCT090,0.00,0.00,VWS V14.01,2013-07-20 09:31:00,
2013-07-20 05:36:00,76.0,72.9,29.87,ESE,105,0.0,0.0,90,0.00,,SCT090,0.00,0.00,VWS V14.01,2013-07-20 09:36:00,
2013-07-20 05:41:00,76.0,72.9,29.87,ESE,105,0.0,0.0,90,0.00,,SCT090,0.00,0.00,VWS V14.01,2013-07-20 09:41:00,
2013-07-20 05:46:00,76.0,72.9,29.87,ESE,105,0.0,0.0,90,0.00,,SCT090,0.00,0.00,VWS V14.01,2013-07-20 09:46:00,
2013-07-20 05:51:00,75.8,72.7,29.87,ESE,105,0.0,0.0,90,0.00,,SCT090,0.00,0.00,VWS V14.01,2013-07-20 09:51:00,
2013-07-20 05:56:00,75.8,72.7,29.87,ESE,105,0.0,0.0,90,0.00,,SCT090,0.00,0.00,VWS V14.01,2013-07-20 09:56:00,
2013-07-20 06:00:00,76.1,73.0,29.86,ESE,105,0.0,0.0,90,0.00,,OVC065,0.00,0.00,VWS V14.01,2013-07-20 10:00:00,
2013-07-20 06:01:00,75.8,72.7,29.87,ESE,105,0.0,0.0,90,0.00,,,0.00,0.00,VWS V14.01,2013-07-20 10:01:00,
2013-07-20 06:06:00,75.8,73.0,29.87,ESE,105,0.0,0.0,91,0.00,,,0.00,0.00,VWS V14.01,2013-07-20 10:06:00,
2013-07-20 06:11:00,75.8,72.7,29.87,ESE,105,0.0,0.0,90,0.00,,,0.00,0.00,VWS V14.01,2013-07-20 10:11:00,
2013-07-20 06:16:00,76.0,73.2,29.87,ESE,105,0.0,0.0,91,0.00,,,0.00,0.00,VWS V14.01,2013-07-20 10:16:00,
2013-07-20 06:21:00,76.0,73.5,29.87,ESE,105,0.0,0.0,92,0.00,,,0.00,0.00,VWS V14.01,2013-07-20 10:21:00,
2013-07-20 06:26:00,76.0,73.5,29.87,ESE,105,0.0,0.0,92,0.00,,,0.00,0.00,VWS V14.01,2013-07-20 10:26:00,
2013-07-20 06:30:00,76.0,72.9,29.87,ESE,105,0.0,0.0,90,0.00,,OVC065,0.00,0.00,VWS V14.01,2013-07-20 10:30:00,
2013-07-20 06:31:00,76.0,73.8,29.87,ESE,105,0.0,0.0,93,0.00,,,0.00,0.00,VWS V14.01,2013-07-20 10:31:00,
2013-07-20 06:36:00,75.8,73.3,29.87,ESE,105,0.0,0.0,92,0.00,,,0.00,5.00,VWS V14.01,2013-07-20 10:36:00,
2013-07-20 06:41:00,75.6,73.1,29.87,ESE,105,0.0,0.0,92,0.00,,,0.00,9.00,VWS V14.01,2013-07-20 10:41:00,
2013-07-20 06:46:00,75.8,73.3,29.88,ESE,105,0.0,0.0,92,0.00,,,0.00,14.00,VWS V14.01,2013-07-20 10:46:00,
2013-07-20 06:51:00,75.8,73.3,29.88,ESE,105,0.0,0.0,92,0.00,,,0.00,18.00,VWS V14.01,2013-07-20 10:51:00,
2013-07-20 06:56:00,75.8,73.3,29.88,ESE,105,0.0,0.0,92,0.00,,,0.00,18.00,VWS V14.01,2013-07-20 10:56:00,
2013-07-20 07:00:00,75.8,72.7,29.87,ESE,105,0.0,0.0,90,0.00,,OVC065,0.00,0.00,VWS V14.01,2013-07-20 11:00:00,
2013-07-20 07:01:00,76.0,73.5,29.88,ESE,105,0.0,0.0,92,0.00,,,0.00,23.00,VWS V14.01,2013-07-20 11:01:00,
2013-07-20 07:06:00,76.0,73.5,29.88,ESE,105,0.0,0.0,92,0.00,,,0.00,25.00,VWS V14.01,2013-07-20 11:06:00,
2013-07-20 07:11:00,76.0,73.5,29.88,ESE,105,0.0,0.0,92,0.00,,,0.00,30.00,VWS V14.01,2013-07-20 11:11:00,
2013-07-20 07:16:00,76.0,73.5,29.88,ESE,105,0.0,0.0,92,0.00,,,0.00,37.00,VWS V14.01,2013-07-20 11:16:00,
2013-07-20 07:21:00,75.8,73.3,29.88,West,269,0.0,1.0,92,0.00,,,0.00,42.00,VWS V14.01,2013-07-20 11:21:00,
2013-07-20 07:26:00,75.8,73.6,29.88,West,269,0.0,1.0,93,0.00,,,0.00,46.00,VWS V14.01,2013-07-20 11:26:00,
2013-07-20 07:30:00,76.0,73.8,29.87,ESE,105,0.0,0.0,93,0.00,,OVC065,0.00,0.00,VWS V14.01,2013-07-20 11:30:00,
2013-07-20 07:31:00,75.8,73.6,29.88,West,269,1.0,2.0,93,0.00,,,0.00,54.00,VWS V14.01,2013-07-20 11:31:00,
2013-07-20 07:36:00,76.0,73.8,29.88,West,259,0.0,4.0,93,0.00,,,0.00,60.00,VWS V14.01,2013-07-20 11:36:00,
2013-07-20 07:41:00,75.8,73.3,29.88,West,263,1.0,6.0,92,0.00,,,0.00,74.00,VWS V14.01,2013-07-20 11:41:00,
2013-07-20 07:46:00,75.6,73.1,29.89,West,259,0.0,6.0,92,0.00,,,0.00,63.00,VWS V14.01,2013-07-20 11:46:00,
2013-07-20 07:51:00,75.6,73.1,29.89,West,264,1.0,6.0,92,0.00,,,0.00,70.00,VWS V14.01,2013-07-20 11:51:00,
2013-07-20 07:56:00,75.6,73.1,29.89,West,268,0.0,6.0,92,0.00,,,0.00,76.00,VWS V14.01,2013-07-20 11:56:00,
2013-07-20 08:00:00,76.0,73.5,29.88,ESE,105,0.0,0.0,92,0.00,,OVC065,0.00,23.00,VWS V14.01,2013-07-20 12:00:00,
2013-07-20 08:01:00,75.4,72.9,29.89,WSW,257,3.0,4.0,92,0.00,,,0.00,56.00,VWS V14.01,2013-07-20 12:01:00,
2013-07-20 08:06:00,75.3,73.1,29.89,WSW,257,0.0,4.0,93,0.00,,,0.00,65.00,VWS V14.01,2013-07-20 12:06:00,
2013-07-20 08:11:00,75.1,73.3,29.89,West,266,0.0,5.0,94,0.00,,,0.00,84.00,VWS V14.01,2013-07-20 12:11:00,
2013-07-20 08:16:00,75.1,72.9,29.89,West,265,2.0,5.0,93,0.00,,,0.00,130.00,VWS V14.01,2013-07-20 12:16:00,
2013-07-20 08:21:00,75.1,73.3,29.89,West,261,1.0,5.0,94,0.00,,,0.00,90.00,VWS V14.01,2013-07-20 12:21:00,
2013-07-20 08:26:00,75.3,73.5,29.89,West,262,0.0,5.0,94,0.00,,,0.00,102.00,VWS V14.01,2013-07-20 12:26:00,
2013-07-20 08:30:00,75.8,73.6,29.88,West,269,0.0,1.0,93,0.00,,OVC065,0.00,54.00,VWS V14.01,2013-07-20 12:30:00,
2013-07-20 08:31:00,75.3,73.1,29.90,West,263,3.0,3.0,93,0.00,,,0.00,121.00,VWS V14.01,2013-07-20 12:31:00,
2013-07-20 08:36:00,75.3,73.1,29.90,West,263,0.0,4.0,93,0.00,,,0.00,151.00,VWS V14.01,2013-07-20 12:36:00,
2013-07-20 08:41:00,75.4,73.2,29.90,West,263,0.0,4.0,93,0.00,,,0.00,149.00,VWS V14.01,2013-07-20 12:41:00,
2013-07-20 08:46:00,75.6,73.1,29.90,West,264,1.0,5.0,92,0.00,,,0.00,146.00,VWS V14.01,2013-07-20 12:46:00,
2013-07-20 08:51:00,75.8,73.3,29.90,West,263,0.0,5.0,92,0.00,,,0.00,171.00,VWS V14.01,2013-07-20 12:51:00,
2013-07-20 08:56:00,76.0,73.2,29.90,West,263,0.0,5.0,91,0.00,,,0.00,165.00,VWS V14.01,2013-07-20 12:56:00,
2013-07-20 09:00:00,75.4,72.9,29.89,WSW,252,1.0,7.0,92,0.00,,OVC065,0.00,56.00,VWS V14.01,2013-07-20 13:00:00,
2013-07-20 09:01:00,76.0,72.9,29.90,West,279,0.0,0.0,90,0.00,,,0.00,179.00,VWS V14.01,2013-07-20 13:01:00,
2013-07-20 09:06:00,76.1,73.3,29.90,West,279,3.0,4.0,91,0.00,,,0.00,178.00,VWS V14.01,2013-07-20 13:06:00,
2013-07-20 09:11:00,76.1,73.0,29.90,West,279,3.0,4.0,90,0.00,,,0.00,169.00,VWS V14.01,2013-07-20 13:11:00,
2013-07-20 09:16:00,76.3,72.8,29.90,West,279,0.0,4.0,89,0.00,,,0.00,121.00,VWS V14.01,2013-07-20 13:16:00,
2013-07-20 09:21:00,76.3,73.2,29.90,West,281,0.0,4.0,90,0.00,,,0.00,146.00,VWS V14.01,2013-07-20 13:21:00,
2013-07-20 09:26:00,76.7,73.2,29.90,WNW,282,0.0,4.0,89,0.00,,,0.00,192.00,VWS V14.01,2013-07-20 13:26:00,
2013-07-20 09:30:00,75.3,73.1,29.90,West,263,1.0,5.0,93,0.00,,OVC065,0.00,121.00,VWS V14.01,2013-07-20 13:30:00,
2013-07-20 09:31:00,76.8,73.3,29.90,WNW,286,0.0,0.0,89,0.00,,,0.00,214.00,VWS V14.01,2013-07-20 13:31:00,
2013-07-20 09:36:00,77.2,73.4,29.90,WNW,290,0.0,1.0,88,0.00,,,0.00,251.00,VWS V14.01,2013-07-20 13:36:00,
2013-07-20 09:41:00,77.6,73.4,29.90,SW,216,0.0,2.0,87,0.00,,,0.00,225.00,VWS V14.01,2013-07-20 13:41:00,
2013-07-20 09:46:00,77.9,73.0,29.90,SW,215,0.0,2.0,85,0.00,,,0.00,258.00,VWS V14.01,2013-07-20 13:46:00,
2013-07-20 09:51:00,78.5,73.3,29.90,SSW,207,0.0,2.0,84,0.00,,,0.00,501.00,VWS V14.01,2013-07-20 13:51:00,
2013-07-20 09:56:00,78.8,72.8,29.90,South,176,0.0,3.0,82,0.00,,,0.00,257.00,VWS V14.01,2013-07-20 13:56:00,
2013-07-20 10:00:00,76.0,72.9,29.90,West,279,0.0,5.0,90,0.00,,OVC065,0.00,179.00,VWS V14.01,2013-07-20 14:00:00,
2013-07-20 10:01:00,79.4,73.8,29.90,SSE,152,1.0,3.0,83,0.00,,,0.00,390.00,VWS V14.01,2013-07-20 14:01:00,
2013-07-20 10:06:00,79.8,73.4,29.90,SE,136,4.0,4.0,81,0.00,,OVC009,0.00,603.00,VWS V14.01,2013-07-20 14:06:00,
2013-07-20 10:11:00,80.1,73.4,29.90,SE,142,0.0,5.0,80,0.00,,OVC009,0.00,605.00,VWS V14.01,2013-07-20 14:11:00,
2013-07-20 10:16:00,80.5,73.0,29.89,SE,141,1.0,5.0,78,0.00,,OVC009,0.00,454.00,VWS V14.01,2013-07-20 14:16:00,
2013-07-20 10:21:00,80.7,73.2,29.89,SE,143,0.0,5.0,78,0.00,,OVC009,0.00,420.00,VWS V14.01,2013-07-20 14:21:00,
2013-07-20 10:26:00,81.1,73.6,29.89,SE,141,0.0,5.0,78,0.00,,OVC009,0.00,580.00,VWS V14.01,2013-07-20 14:26:00,
2013-07-20 10:30:00,76.8,73.3,29.90,WNW,286,0.0,4.0,89,0.00,,OVC065,0.00,207.00,VWS V14.01,2013-07-20 14:30:00,
2013-07-20 10:31:00,81.4,73.5,29.89,SE,143,1.0,5.0,77,0.00,,OVC009,0.00,605.00,VWS V14.01,2013-07-20 14:31:00,
2013-07-20 10:36:00,81.8,73.5,29.89,SE,146,1.0,4.0,76,0.00,,OVC009,0.00,613.00,VWS V14.01,2013-07-20 14:36:00,
2013-07-20 10:41:00,81.8,73.5,29.89,WSW,255,0.0,4.0,76,0.00,,BKN011,0.00,601.00,VWS V14.01,2013-07-20 14:41:00,
2013-07-20 10:46:00,81.2,73.3,29.90,NNW,342,0.0,4.0,77,0.00,,BKN011,0.00,640.00,VWS V14.01,2013-07-20 14:46:00,
2013-07-20 10:51:00,81.4,73.1,29.90,SSE,150,0.0,4.0,76,0.00,,BKN011,0.00,638.00,VWS V14.01,2013-07-20 14:51:00,
2013-07-20 10:56:00,81.8,73.9,29.90,SE,133,0.0,4.0,77,0.00,,BKN011,0.00,661.00,VWS V14.01,2013-07-20 14:56:00,
2013-07-20 11:00:00,79.4,73.8,29.90,SSE,152,1.0,3.0,83,0.00,,OVC065,0.00,390.00,VWS V14.01,2013-07-20 15:00:00,
2013-07-20 11:01:00,82.2,73.5,29.90,West,277,0.0,4.0,75,0.00,,BKN011,0.00,673.00,VWS V14.01,2013-07-20 15:01:00,
2013-07-20 11:06:00,82.4,73.7,29.90,South,190,0.0,4.0,75,0.00,,BKN011,0.00,687.00,VWS V14.01,2013-07-20 15:06:00,
2013-07-20 11:10:00,82.6,73.1,29.90,SSE,151,0.0,4.0,73,0.00,,BKN011,0.00,693.00,VWS V14.01,2013-07-20 15:10:00,
2013-07-20 11:15:00,83.2,74.1,29.89,SE,145,0.0,4.0,74,0.00,,BKN011,0.00,722.00,VWS V14.01,2013-07-20 15:15:00,
2013-07-20 11:21:00,83.2,73.7,29.89,WNW,298,5.0,5.0,73,0.00,,SCT013,0.00,729.00,VWS V14.01,2013-07-20 15:21:00,
2013-07-20 11:26:00,82.2,74.7,29.89,SW,219,0.0,6.0,78,0.00,,SCT013,0.00,763.00,VWS V14.01,2013-07-20 15:26:00,
2013-07-20 11:30:00,81.4,73.5,29.89,SE,143,2.0,5.0,77,0.00,,OVC065,0.00,605.00,VWS V14.01,2013-07-20 15:30:00,
2013-07-20 11:31:00,82.0,73.7,29.88,NNW,340,0.0,6.0,76,0.00,,SCT013,0.00,758.00,VWS V14.01,2013-07-20 15:31:00,
2013-07-20 11:36:00,82.4,73.7,29.88,SE,129,0.0,1.0,75,0.00,,SCT013,0.00,802.00,VWS V14.01,2013-07-20 15:36:00,
2013-07-20 11:41:00,83.2,74.5,29.88,SSE,148,0.0,3.0,75,0.00,,BKN013,0.00,796.00,VWS V14.01,2013-07-20 15:41:00,
2013-07-20 11:46:00,83.0,74.3,29.88,West,279,2.0,4.0,75,0.00,,BKN013,0.00,840.00,VWS V14.01,2013-07-20 15:46:00,
2013-07-20 11:51:00,82.8,74.1,29.88,SE,135,0.0,4.0,75,0.00,,BKN013,0.00,900.00,VWS V14.01,2013-07-20 15:51:00,
2013-07-20 11:56:00,83.4,73.8,29.88,SE,144,1.0,4.0,73,0.00,,BKN013,0.00,826.00,VWS V14.01,2013-07-20 15:56:00,
2013-07-20 12:00:00,82.2,73.5,29.90,West,277,0.0,4.0,75,0.00,,OVC065,0.00,673.00,VWS V14.01,2013-07-20 16:00:00,
2013-07-20 12:01:00,84.1,74.1,29.87,SE,144,3.0,5.0,72,0.00,,BKN013,0.00,874.00,VWS V14.01,2013-07-20 16:01:00,
2013-07-20 12:06:00,84.3,74.3,29.87,SE,146,0.0,6.0,72,0.00,,BKN015,0.00,847.00,VWS V14.01,2013-07-20 16:06:00,
2013-07-20 12:11:00,84.5,74.5,29.87,SSE,147,2.0,6.0,72,0.00,,BKN015,0.00,594.00,VWS V14.01,2013-07-20 16:11:00,
2013-07-20 12:16:00,84.7,73.8,29.86,SE,138,3.0,7.0,70,0.00,,BKN015,0.00,937.00,VWS V14.01,2013-07-20 16:16:00,
2013-07-20 12:21:00,84.0,74.4,29.86,SSE,155,5.0,7.0,73,0.00,,BKN015,0.00,301.00,VWS V14.01,2013-07-20 16:21:00,
2013-07-20 12:26:00,83.6,74.4,29.86,SE,144,4.0,7.0,74,0.00,,BKN015,0.00,355.00,VWS V14.01,2013-07-20 16:26:00,
2013-07-20 12:30:00,82.0,73.7,29.88,NNW,340,0.0,6.0,76,0.00,,OVC065,0.00,758.00,VWS V14.01,2013-07-20 16:30:00,
2013-07-20 12:31:00,83.6,74.4,29.87,SE,146,2.0,7.0,74,0.00,,BKN015,0.00,387.00,VWS V14.01,2013-07-20 16:31:00,
2013-07-20 12:36:00,84.0,74.0,29.87,SE,141,1.0,5.0,72,0.00,,BKN015,0.00,387.00,VWS V14.01,2013-07-20 16:36:00,
2013-07-20 12:41:00,84.0,74.0,29.87,SSE,150,0.0,6.0,72,0.00,,BKN015,0.00,380.00,VWS V14.01,2013-07-20 16:41:00,
2013-07-20 12:46:00,84.1,74.1,29.86,South,188,0.0,6.0,72,0.00,,BKN015,0.00,362.00,VWS V14.01,2013-07-20 16:46:00,
2013-07-20 12:51:00,84.5,74.5,29.86,ESE,121,2.0,6.0,72,0.00,,BKN015,0.00,1028.00,VWS V14.01,2013-07-20 16:51:00,
2013-07-20 12:56:00,84.7,73.4,29.86,SE,146,2.0,6.0,69,0.00,,BKN015,0.00,1130.00,VWS V14.01,2013-07-20 16:56:00,
2013-07-20 13:00:00,84.1,74.1,29.87,SE,144,3.0,5.0,72,0.00,,OVC065,0.00,874.00,VWS V14.01,2013-07-20 17:00:00,
2013-07-20 13:01:00,84.5,73.7,29.86,SE,145,2.0,2.0,70,0.00,,BKN015,0.00,439.00,VWS V14.01,2013-07-20 17:01:00,
2013-07-20 13:06:00,84.3,74.3,29.86,SE,144,3.0,5.0,72,0.00,,SCT015,0.00,359.00,VWS V14.01,2013-07-20 17:06:00,
2013-07-20 13:11:00,84.3,73.9,29.86,SSE,155,0.0,5.0,71,0.00,,SCT015,0.00,418.00,VWS V14.01,2013-07-20 17:11:00,
2013-07-20 13:16:00,84.5,73.7,29.85,SE,145,2.0,6.0,70,0.00,,SCT015,0.00,408.00,VWS V14.01,2013-07-20 17:16:00,
2013-07-20 13:21:00,84.5,73.7,29.85,SSE,166,0.0,6.0,70,0.00,,BKN015,0.00,329.00,VWS V14.01,2013-07-20 17:21:00,
2013-07-20 13:26:00,84.7,74.3,29.85,SE,130,4.0,6.0,71,0.00,,BKN015,0.00,332.00,VWS V14.01,2013-07-20 17:26:00,
2013-07-20 13:30:00,83.6,74.4,29.87,SE,146,2.0,7.0,74,0.00,,OVC065,0.00,387.00,VWS V14.01,2013-07-20 17:30:00,
2013-07-20 13:31:00,84.7,74.3,29.85,SSE,159,0.0,0.0,71,0.00,,BKN015,0.00,316.00,VWS V14.01,2013-07-20 17:31:00,
2013-07-20 13:36:00,84.7,73.8,29.85,SE,144,1.0,6.0,70,0.00,,BKN015,0.00,341.00,VWS V14.01,2013-07-20 17:36:00,
2013-07-20 13:41:00,84.9,74.0,29.85,SSE,160,0.0,6.0,70,0.00,,BKN015,0.00,327.00,VWS V14.01,2013-07-20 17:41:00,
2013-07-20 13:46:00,84.9,74.0,29.85,SE,136,6.0,6.0,70,0.00,,BKN015,0.00,366.00,VWS V14.01,2013-07-20 17:46:00,
2013-07-20 13:51:00,84.5,74.1,29.85,SSE,147,1.0,6.0,71,0.00,,BKN015,0.00,424.00,VWS V14.01,2013-07-20 17:51:00,
2013-07-20 13:56:00,84.3,74.7,29.85,SE,133,5.0,6.0,73,0.00,,BKN015,0.00,366.00,VWS V14.01,2013-07-20 17:56:00,
2013-07-20 14:00:00,84.5,73.7,29.86,SE,146,2.0,9.0,70,0.00,,OVC065,0.00,439.00,VWS V14.01,2013-07-20 18:00:00,
2013-07-20 14:01:00,84.3,74.7,29.84,SE,136,2.0,3.0,73,0.00,,BKN015,0.00,1074.00,VWS V14.01,2013-07-20 18:01:00,
2013-07-20 14:06:00,84.7,74.3,29.84,SSE,168,0.0,4.0,71,0.00,,BKN019,0.00,1088.00,VWS V14.01,2013-07-20 18:06:00,
2013-07-20 14:11:00,85.1,74.2,29.84,SE,138,0.0,4.0,70,0.00,,BKN019,0.00,445.00,VWS V14.01,2013-07-20 18:11:00,
2013-07-20 14:16:00,85.1,73.8,29.83,SSE,154,3.0,5.0,69,0.00,,BKN019,0.00,315.00,VWS V14.01,2013-07-20 18:16:00,
2013-07-20 14:21:00,85.1,74.2,29.83,WSW,257,1.0,6.0,70,0.00,,BKN019,0.00,1076.00,VWS V14.01,2013-07-20 18:21:00,
2013-07-20 14:26:00,84.7,74.7,29.83,South,182,3.0,6.0,72,0.00,,BKN019,0.00,1051.00,VWS V14.01,2013-07-20 18:26:00,
2013-07-20 14:30:00,84.7,74.3,29.85,SSE,159,0.0,6.0,71,0.00,,OVC065,0.00,316.00,VWS V14.01,2013-07-20 18:30:00,
2013-07-20 14:31:00,85.3,74.0,29.84,SE,138,3.0,5.0,69,0.00,,BKN019,0.00,1025.00,VWS V14.01,2013-07-20 18:31:00,
2013-07-20 14:36:00,85.9,73.7,29.84,SE,129,3.0,6.0,67,0.00,,BKN019,0.00,1013.00,VWS V14.01,2013-07-20 18:36:00,
2013-07-20 14:41:00,86.1,73.4,29.84,SSE,162,0.0,7.0,66,0.00,,BKN019,0.00,998.00,VWS V14.01,2013-07-20 18:41:00,
2013-07-20 14:46:00,86.5,73.8,29.83,South,180,4.0,7.0,66,0.00,,BKN019,0.00,977.00,VWS V14.01,2013-07-20 18:46:00,
2013-07-20 14:51:00,87.0,74.7,29.83,SSE,163,0.0,7.0,67,0.00,,BKN019,0.00,833.00,VWS V14.01,2013-07-20 18:51:00,
2013-07-20 14:56:00,84.5,70.1,29.83,WNW,294,13.0,24.0,62,0.00,,BKN019,0.00,160.00,VWS V14.01,2013-07-20 18:56:00,
2013-07-20 15:00:00,84.3,74.7,29.84,SE,137,3.0,7.0,73,0.00,,OVC065,0.00,1074.00,VWS V14.01,2013-07-20 19:00:00,
2013-07-20 15:01:00,81.2,67.4,29.85,NW,311,15.0,18.0,63,0.00,,BKN035,0.00,91.00,VWS V14.01,2013-07-20 19:01:00,
2013-07-20 15:06:00,79.6,69.0,29.85,NW,309,9.0,18.0,70,0.00,,BKN035,0.00,116.00,VWS V14.01,2013-07-20 19:06:00,
2013-07-20 15:12:00,78.3,68.5,29.85,WNW,295,15.0,22.0,72,0.00,,BKN035,0.00,97.00,VWS V14.01,2013-07-20 19:12:00,
2013-07-20 15:17:00,76.8,68.7,29.84,West,265,5.0,22.0,76,0.00,,BKN035,0.00,79.00,VWS V14.01,2013-07-20 19:17:00,
2013-07-20 15:22:00,75.8,70.6,29.84,WNW,282,10.0,22.0,84,0.00,,BKN042,0.00,76.00,VWS V14.01,2013-07-20 19:22:00,
2013-07-20 15:27:00,75.1,71.0,29.84,West,274,7.0,22.0,87,0.11,,BKN042,0.11,76.00,VWS V14.01,2013-07-20 19:27:00,
2013-07-20 15:30:00,85.3,74.0,29.84,SE,142,1.0,7.0,69,0.00,,OVC065,0.00,1025.00,VWS V14.01,2013-07-20 19:30:00,
2013-07-20 15:32:00,74.6,71.5,29.84,WNW,296,15.0,16.0,90,0.19,,BKN042,0.19,84.00,VWS V14.01,2013-07-20 19:32:00,
2013-07-20 15:37:00,74.0,70.9,29.84,NNW,333,5.0,16.0,90,0.26,,BKN042,0.26,90.00,VWS V14.01,2013-07-20 19:37:00,
2013-07-20 15:42:00,74.0,71.2,29.84,NE,34,0.0,16.0,91,0.29,,BKN042,0.29,79.00,VWS V14.01,2013-07-20 19:42:00,
2013-07-20 15:47:00,74.4,71.9,29.84,NE,44,4.0,16.0,92,0.34,,BKN042,0.34,83.00,VWS V14.01,2013-07-20 19:47:00,
2013-07-20 15:53:00,75.1,72.6,29.84,ESE,105,5.0,16.0,92,0.36,,BKN042,0.36,90.00,VWS V14.01,2013-07-20 19:53:00,
2013-07-20 15:58:00,74.9,71.8,29.84,SE,145,2.0,16.0,90,0.37,,BKN042,0.37,72.00,VWS V14.01,2013-07-20 19:58:00,
2013-07-20 16:00:00,81.8,67.1,29.85,WNW,294,10.0,24.0,61,0.00,,OVC065,0.00,84.00,VWS V14.01,2013-07-20 20:00:00,
2013-07-20 16:03:00,74.9,72.1,29.85,SSE,154,0.0,0.0,91,0.37,,BKN042,0.37,79.00,VWS V14.01,2013-07-20 20:03:00,
2013-07-20 16:08:00,74.6,71.5,29.85,SSE,157,0.0,1.0,90,0.37,,BKN042,0.37,79.00,VWS V14.01,2013-07-20 20:08:00,
2013-07-20 16:13:00,74.6,72.1,29.85,SSE,155,0.0,3.0,92,0.39,,BKN042,0.39,69.00,VWS V14.01,2013-07-20 20:13:00,
2013-07-20 16:18:00,74.4,71.6,29.85,SE,142,4.0,4.0,91,0.44,,BKN042,0.44,65.00,VWS V14.01,2013-07-20 20:18:00,
2013-07-20 16:23:00,74.2,71.7,29.85,SSE,150,0.0,5.0,92,0.47,,OVC035,0.47,65.00,VWS V14.01,2013-07-20 20:23:00,
2013-07-20 16:28:00,74.0,71.8,29.85,SE,133,2.0,5.0,93,0.49,,OVC035,0.49,76.00,VWS V14.01,2013-07-20 20:28:00,
2013-07-20 16:30:00,74.6,71.2,29.84,WNW,300,7.0,22.0,89,0.17,,OVC065,0.17,81.00,VWS V14.01,2013-07-20 20:30:00,
2013-07-20 16:33:00,74.0,72.2,29.85,SE,145,3.0,7.0,94,0.34,,OVC035,0.51,93.00,VWS V14.01,2013-07-20 20:33:00,
2013-07-20 16:38:00,73.9,71.8,29.85,SE,136,2.0,7.0,93,0.35,,OVC035,0.52,123.00,VWS V14.01,2013-07-20 20:38:00,
2013-07-20 16:43:00,73.3,71.2,29.85,SSE,147,0.0,7.0,93,0.36,,,0.53,195.00,VWS V14.01,2013-07-20 20:43:00,
2013-07-20 16:48:00,73.3,71.5,29.85,SSE,148,1.0,7.0,94,0.36,,,0.53,339.00,VWS V14.01,2013-07-20 20:48:00,
2013-07-20 16:54:00,73.5,71.4,29.85,SSE,163,0.0,7.0,93,0.36,,,0.53,336.00,VWS V14.01,2013-07-20 20:54:00,
2013-07-20 16:59:00,73.7,71.2,29.85,SSE,155,0.0,7.0,92,0.36,,,0.53,253.00,VWS V14.01,2013-07-20 20:59:00,
2013-07-20 17:00:00,74.9,71.8,29.85,SSE,147,0.0,16.0,90,0.37,,OVC065,0.37,74.00,VWS V14.01,2013-07-20 21:00:00,
2013-07-20 17:04:00,74.2,72.1,29.84,South,173,0.0,1.0,93,0.16,,,0.53,264.00,VWS V14.01,2013-07-20 21:04:00,
2013-07-20 17:09:00,74.4,71.9,29.84,SE,129,0.0,2.0,92,0.16,,,0.53,232.00,VWS V14.01,2013-07-20 21:09:00,
2013-07-20 17:14:00,74.6,71.8,29.84,SW,233,1.0,3.0,91,0.16,,,0.53,213.00,VWS V14.01,2013-07-20 21:14:00,
2013-07-20 17:19:00,74.9,72.1,29.85,SW,229,0.0,3.0,91,0.16,,,0.53,186.00,VWS V14.01,2013-07-20 21:19:00,
2013-07-20 17:24:00,74.9,71.8,29.85,SSW,204,0.0,3.0,90,0.16,,OVC027,0.53,162.00,VWS V14.01,2013-07-20 21:24:00,
2013-07-20 17:29:00,74.9,72.1,29.85,WSW,240,2.0,3.0,91,0.16,,OVC027,0.53,144.00,VWS V14.01,2013-07-20 21:29:00,
2013-07-20 17:30:00,74.2,72.1,29.85,SE,135,4.0,5.0,93,0.50,,OVC065,0.50,84.00,VWS V14.01,2013-07-20 21:30:00,
2013-07-20 17:34:00,75.1,72.3,29.84,SW,230,0.0,4.0,91,0.03,,OVC027,0.53,130.00,VWS V14.01,2013-07-20 21:34:00,
2013-07-20 17:40:00,75.1,72.3,29.84,SW,224,0.0,4.0,91,0.03,,-RA,0.53,139.00,VWS V14.01,2013-07-20 21:40:00,
2013-07-20 17:45:00,75.3,72.8,29.84,South,173,0.0,4.0,92,0.03,,-RA,0.53,151.00,VWS V14.01,2013-07-20 21:45:00,
2013-07-20 17:50:00,75.4,72.9,29.84,SE,140,0.0,4.0,92,0.03,,-RA,0.53,155.00,VWS V14.01,2013-07-20 21:50:00,
2013-07-20 17:55:00,75.6,73.4,29.84,ESE,111,0.0,4.0,93,0.03,,-RA,0.53,153.00,VWS V14.01,2013-07-20 21:55:00,
2013-07-20 18:00:00,75.6,73.1,29.84,ESE,109,0.0,4.0,92,0.03,,-RA,0.53,149.00,VWS V14.01,2013-07-20 22:00:00,
2013-07-20 18:05:00,75.8,73.3,29.84,East,96,0.0,0.0,92,0.00,,RA,0.53,149.00,VWS V14.01,2013-07-20 22:05:00,
2013-07-20 18:11:00,75.8,73.0,29.84,East,94,0.0,0.0,91,0.00,,RA,0.53,139.00,VWS V14.01,2013-07-20 22:11:00,
2013-07-20 18:16:00,76.1,73.9,29.82,East,94,0.0,0.0,93,0.00,,RA,0.53,130.00,VWS V14.01,2013-07-20 22:16:00,
2013-07-20 18:21:00,76.1,73.3,29.82,ESE,102,0.0,0.0,91,0.00,,RA,0.53,125.00,VWS V14.01,2013-07-20 22:21:00,
2013-07-20 18:26:00,76.1,73.3,29.82,ESE,108,0.0,0.0,91,0.00,,RA,0.53,127.00,VWS V14.01,2013-07-20 22:26:00,
2013-07-20 18:30:00,75.1,72.0,29.84,West,259,2.0,5.0,90,0.16,,OVC065,0.53,139.00,VWS V14.01,2013-07-20 22:30:00,
2013-07-20 18:31:00,76.1,73.3,29.81,ESE,117,0.0,0.0,91,0.00,,RA,0.53,134.00,VWS V14.01,2013-07-20 22:31:00,
2013-07-20 18:37:00,76.3,73.2,29.81,ESE,117,0.0,1.0,90,0.00,,RA,0.53,146.00,VWS V14.01,2013-07-20 22:37:00,
2013-07-20 18:42:00,76.3,72.8,29.81,ENE,74,0.0,3.0,89,0.00,,RA,0.53,155.00,VWS V14.01,2013-07-20 22:42:00,
2013-07-20 18:47:00,76.7,74.2,29.81,NE,34,3.0,5.0,92,0.00,,RA,0.53,155.00,VWS V14.01,2013-07-20 22:47:00,
2013-07-20 18:52:00,76.7,73.9,29.81,North,11,3.0,5.0,91,0.01,,RA,0.54,151.00,VWS V14.01,2013-07-20 22:52:00,
2013-07-20 18:57:00,76.8,73.7,29.81,NNW,343,3.0,5.0,90,0.01,,RA,0.54,142.00,VWS V14.01,2013-07-20 22:57:00,
2013-07-20 19:00:00,75.6,73.4,29.84,ESE,111,0.0,4.0,93,0.03,,OVC065,0.53,149.00,VWS V14.01,2013-07-20 23:00:00,
2013-07-20 19:02:00,76.5,73.0,29.82,NNW,331,0.0,3.0,89,0.01,,-RA,0.54,139.00,VWS V14.01,2013-07-20 23:02:00,
2013-07-20 19:07:00,76.5,72.7,29.82,WNW,283,1.0,4.0,88,0.01,,-RA,0.54,132.00,VWS V14.01,2013-07-20 23:07:00,
2013-07-20 19:12:00,76.5,72.3,29.82,WNW,286,0.0,4.0,87,0.01,,-RA,0.54,121.00,VWS V14.01,2013-07-20 23:12:00,
2013-07-20 19:18:00,76.5,72.3,29.81,ESE,109,0.0,4.0,87,0.01,,-RA,0.54,107.00,VWS V14.01,2013-07-20 23:18:00,
2013-07-20 19:23:00,76.5,73.0,29.81,SSE,155,0.0,4.0,89,0.01,,-RA,0.54,102.00,VWS V14.01,2013-07-20 23:23:00,
2013-07-20 19:28:00,76.5,73.3,29.81,SSE,162,0.0,4.0,90,0.01,,-RA,0.54,91.00,VWS V14.01,2013-07-20 23:28:00,
2013-07-20 19:30:00,76.1,73.3,29.81,ESE,116,0.0,0.0,91,0.00,,OVC065,0.53,132.00,VWS V14.01,2013-07-20 23:30:00,
2013-07-20 19:33:00,76.3,73.2,29.82,SSE,166,0.0,1.0,90,0.01,,-RA,0.54,86.00,VWS V14.01,2013-07-20 23:33:00,
2013-07-20 19:38:00,76.3,73.2,29.82,SSW,206,0.0,1.0,90,0.01,,-RA,0.54,86.00,VWS V14.01,2013-07-20 23:38:00,
2013-07-20 19:43:00,76.3,73.2,29.82,WNW,288,0.0,3.0,90,0.01,,-RA,0.54,74.00,VWS V14.01,2013-07-20 23:43:00,
2013-07-20 19:48:00,76.1,73.3,29.82,NNE,28,0.0,3.0,91,0.01,,-RA,0.54,63.00,VWS V14.01,2013-07-20 23:48:00,
2013-07-20 19:53:00,76.0,72.9,29.82,SE,138,0.0,3.0,90,0.01,,-RA,0.54,53.00,VWS V14.01,2013-07-20 23:53:00,
2013-07-20 19:58:00,75.8,73.0,29.82,South,181,0.0,3.0,91,0.01,,-RA,0.54,47.00,VWS V14.01,2013-07-20 23:58:00,
2013-07-20 20:00:00,76.7,73.2,29.82,NNW,330,3.0,7.0,89,0.01,,OVC065,0.54,142.00,VWS V14.01,2013-07-21 00:00:00,
2013-07-20 20:03:00,75.6,72.5,29.82,South,190,0.0,0.0,90,0.00,,CLR,0.54,42.00,VWS V14.01,2013-07-21 00:03:00,
2013-07-20 20:08:00,75.6,72.8,29.82,South,187,0.0,0.0,91,0.00,,CLR,0.54,37.00,VWS V14.01,2013-07-21 00:08:00,
2013-07-20 20:13:00,75.6,73.1,29.82,SSW,194,0.0,0.0,92,0.00,,CLR,0.54,32.00,VWS V14.01,2013-07-21 00:13:00,
2013-07-20 20:18:00,75.6,73.1,29.82,South,190,0.0,0.0,92,0.00,,CLR,0.54,25.00,VWS V14.01,2013-07-21 00:18:00,
2013-07-20 20:24:00,75.6,73.4,29.82,SSE,167,4.0,4.0,93,0.00,,CLR,0.54,18.00,VWS V14.01,2013-07-21 00:24:00,
2013-07-20 20:29:00,76.0,74.2,29.82,SSE,148,1.0,5.0,94,0.00,,CLR,0.54,9.00,VWS V14.01,2013-07-21 00:29:00,
2013-07-20 20:30:00,76.3,73.2,29.82,SSE,166,0.0,4.0,90,0.01,,OVC065,0.54,88.00,VWS V14.01,2013-07-21 00:30:00,
2013-07-20 20:34:00,76.0,73.8,29.83,South,184,0.0,3.0,93,0.00,,CLR,0.54,7.00,VWS V14.01,2013-07-21 00:34:00,
2013-07-20 20:39:00,75.8,73.6,29.83,SSW,193,0.0,3.0,93,0.00,,CLR,0.54,0.00,VWS V14.01,2013-07-21 00:39:00,
2013-07-20 20:44:00,75.8,73.9,29.83,SSW,193,0.0,3.0,94,0.00,,CLR,0.54,0.00,VWS V14.01,2013-07-21 00:44:00,
2013-07-20 20:49:00,75.6,73.4,29.84,South,183,0.0,3.0,93,0.00,,CLR,0.54,0.00,VWS V14.01,2013-07-21 00:49:00,
2013-07-20 20:54:00,75.4,73.6,29.84,SSW,193,0.0,3.0,94,0.00,,CLR,0.54,0.00,VWS V14.01,2013-07-21 00:54:00,
2013-07-20 20:59:00,75.4,73.6,29.84,SSW,205,0.0,3.0,94,0.00,,CLR,0.54,0.00,VWS V14.01,2013-07-21 00:59:00,
2013-07-20 21:00:00,75.8,73.0,29.82,South,184,0.0,3.0,91,0.01,,OVC065,0.54,44.00,VWS V14.01,2013-07-21 01:00:00,
2013-07-20 21:04:00,75.3,73.8,29.84,South,189,0.0,1.0,95,0.00,,,0.54,0.00,VWS V14.01,2013-07-21 01:04:00,
2013-07-20 21:09:00,75.3,73.8,29.84,South,189,0.0,1.0,95,0.00,,,0.54,0.00,VWS V14.01,2013-07-21 01:09:00,
2013-07-20 21:14:00,75.3,73.8,29.84,South,188,0.0,1.0,95,0.00,,,0.54,0.00,VWS V14.01,2013-07-21 01:14:00,
2013-07-20 21:19:00,75.1,73.6,29.84,SSW,205,0.0,1.0,95,0.00,,,0.54,0.00,VWS V14.01,2013-07-21 01:19:00,
2013-07-20 21:25:00,75.3,73.8,29.84,SSW,193,0.0,1.0,95,0.00,,,0.54,0.00,VWS V14.01,2013-07-21 01:25:00,
2013-07-20 21:30:00,75.3,74.1,29.85,South,190,0.0,1.0,96,0.00,,,0.54,0.00,VWS V14.01,2013-07-21 01:30:00,
2013-07-20 21:35:00,75.1,73.9,29.85,South,184,0.0,0.0,96,0.00,,,0.54,0.00,VWS V14.01,2013-07-21 01:35:00,
2013-07-20 21:40:00,75.1,73.9,29.85,South,179,0.0,0.0,96,0.00,,,0.54,0.00,VWS V14.01,2013-07-21 01:40:00,
2013-07-20 21:45:00,75.1,73.9,29.85,South,176,0.0,0.0,96,0.00,,,0.54,0.00,VWS V14.01,2013-07-21 01:45:00,
2013-07-20 21:50:00,75.1,73.9,29.85,South,176,0.0,0.0,96,0.00,,,0.54,0.00,VWS V14.01,2013-07-21 01:50:00,
2013-07-20 21:55:00,74.9,73.7,29.85,South,176,0.0,0.0,96,0.00,,,0.54,0.00,VWS V14.01,2013-07-21 01:55:00,
2013-07-20 22:00:00,75.1,73.9,29.87,South,176,0.0,0.0,96,0.00,,,0.54,0.00,VWS V14.01,2013-07-21 02:00:00,
2013-07-20 22:05:00,74.9,73.7,29.87,South,177,0.0,0.0,96,0.00,,,0.54,0.00,VWS V14.01,2013-07-21 02:05:00,
2013-07-20 22:10:00,74.9,73.7,29.87,South,176,0.0,0.0,96,0.00,,,0.54,0.00,VWS V14.01,2013-07-21 02:10:00,
2013-07-20 22:15:00,74.9,73.7,29.87,South,172,0.0,0.0,96,0.00,,,0.54,0.00,VWS V14.01,2013-07-21 02:15:00,
2013-07-20 22:21:00,74.9,73.7,29.87,South,171,0.0,0.0,96,0.00,,,0.54,0.00,VWS V14.01,2013-07-21 02:21:00,
2013-07-20 22:26:00,74.9,74.0,29.87,South,174,0.0,0.0,97,0.00,,,0.54,0.00,VWS V14.01,2013-07-21 02:26:00,
2013-07-20 22:30:00,75.3,73.8,29.85,South,189,0.0,1.0,95,0.00,,OVC065,0.54,0.00,VWS V14.01,2013-07-21 02:30:00,
2013-07-20 22:31:00,74.9,74.0,29.88,South,175,0.0,0.0,97,0.00,,,0.54,0.00,VWS V14.01,2013-07-21 02:31:00,
2013-07-20 22:36:00,75.1,74.2,29.88,South,175,0.0,0.0,97,0.00,,,0.54,0.00,VWS V14.01,2013-07-21 02:36:00,
2013-07-20 22:41:00,75.3,74.4,29.88,South,180,0.0,1.0,97,0.00,,,0.54,0.00,VWS V14.01,2013-07-21 02:41:00,
2013-07-20 22:46:00,75.1,74.2,29.88,South,174,0.0,1.0,97,0.00,,,0.54,0.00,VWS V14.01,2013-07-21 02:46:00,
2013-07-20 22:51:00,75.3,74.4,29.88,South,173,0.0,1.0,97,0.00,,,0.54,0.00,VWS V14.01,2013-07-21 02:51:00,
2013-07-20 22:56:00,75.3,74.4,29.88,South,173,0.0,1.0,97,0.00,,,0.54,0.00,VWS V14.01,2013-07-21 02:56:00,
2013-07-20 23:00:00,75.1,73.9,29.87,South,176,0.0,0.0,96,0.00,,OVC065,0.54,0.00,VWS V14.01,2013-07-21 03:00:00,
2013-07-20 23:01:00,75.3,74.4,29.87,South,173,0.0,0.0,97,0.00,,SCT100,0.00,0.00,VWS V14.01,2013-07-21 03:01:00,
2013-07-20 23:06:00,75.3,74.4,29.87,South,173,0.0,0.0,97,0.00,,SCT100,0.00,0.00,VWS V14.01,2013-07-21 03:06:00,
2013-07-20 23:11:00,75.3,74.4,29.87,South,173,0.0,1.0,97,0.00,,SCT100,0.00,0.00,VWS V14.01,2013-07-21 03:11:00,
2013-07-20 23:16:00,75.3,74.4,29.88,South,172,0.0,1.0,97,0.00,,SCT100,0.00,0.00,VWS V14.01,2013-07-21 03:16:00,
2013-07-20 23:21:00,75.1,74.2,29.88,South,172,0.0,1.0,97,0.00,,SCT100,0.00,0.00,VWS V14.01,2013-07-21 03:21:00,
2013-07-20 23:26:00,75.1,73.9,29.88,South,172,0.0,1.0,96,0.00,,SCT100,0.00,0.00,VWS V14.01,2013-07-21 03:26:00,
2013-07-20 23:30:00,74.9,74.0,29.88,South,175,0.0,0.0,97,0.00,,OVC065,0.54,0.00,VWS V14.01,2013-07-21 03:30:00,
2013-07-20 23:31:00,74.9,73.7,29.88,South,172,0.0,0.0,96,0.00,,SCT100,0.00,0.00,VWS V14.01,2013-07-21 03:31:00,
2013-07-20 23:36:00,74.9,73.7,29.88,South,172,0.0,0.0,96,0.00,,SCT100,0.00,0.00,VWS V14.01,2013-07-21 03:36:00,
2013-07-20 23:41:00,74.7,73.5,29.88,South,170,0.0,0.0,96,0.00,,SCT100,0.00,0.00,VWS V14.01,2013-07-21 03:41:00,
2013-07-20 23:46:00,74.9,73.7,29.88,South,170,0.0,0.0,96,0.00,,SCT100,0.00,0.00,VWS V14.01,2013-07-21 03:46:00,
2013-07-20 23:51:00,74.9,73.7,29.88,South,170,0.0,0.0,96,0.00,,SCT100,0.00,0.00,VWS V14.01,2013-07-21 03:51:00,
2013-07-20 23:56:00,74.9,73.7,29.88,South,170,0.0,0.0,96,0.00,,SCT100,0.00,0.00,VWS V14.01,2013-07-21 03:56:00,